This is the latest recevied weather packets stored in our database for station/object EA1FWM-12. If no packets are shown the sender has not sent any weather packets the latest 10 day(s).
| Time | Temp. | Humidity | Pressure | Rain* | Wind** | Luminosity | Snow |
|---|---|---|---|---|---|---|---|
| 1777366168 | 13.89° C | 85% | 1016.9 hPa | - | - | - | - |
| 1777365268 | 12.78° C | 86% | 1017 hPa | - | - | - | - |
| 1777364368 | 11.67° C | 86% | 1017.1 hPa | - | - | - | - |
| 1777363468 | 10.56° C | 87% | 1017.1 hPa | - | - | - | - |
| 1777362409 | 10.56° C | 86% | 1017 hPa | - | - | - | - |
| 1777361508 | 10.56° C | 87% | 1017 hPa | - | - | - | - |
| 1777360607 | 10° C | 87% | 1017 hPa | - | - | - | - |
| 1777359709 | 9.44° C | 87% | 1017 hPa | - | - | - | - |
| 1777358809 | 9.44° C | 87% | 1017 hPa | - | - | - | - |
| 1777357917 | 9.44° C | 87% | 1016.9 hPa | - | - | - | - |
| 1777357011 | 9.44° C | 87% | 1016.9 hPa | - | - | - | - |
| 1777356111 | 8.89° C | 86% | 1016.7 hPa | - | - | - | - |
| 1777355212 | 8.89° C | 86% | 1016.6 hPa | - | - | - | - |
| 1777354312 | 8.89° C | 86% | 1016.5 hPa | - | - | - | - |
| 1777353414 | 9.44° C | 86% | 1016.6 hPa | - | - | - | - |
| 1777352514 | 8.89° C | 86% | 1016.7 hPa | - | - | - | - |
| 1777351614 | 8.89° C | 86% | 1016.6 hPa | - | - | - | - |
| 1777350721 | 9.44° C | 86% | 1016.6 hPa | - | - | - | - |
| 1777349814 | 9.44° C | 86% | 1016.7 hPa | - | - | - | - |
| 1777348914 | 9.44° C | 85% | 1016.8 hPa | - | - | - | - |
| 1777348015 | 9.44° C | 85% | 1016.9 hPa | - | - | - | - |
| 1777347115 | 9.44° C | 85% | 1016.9 hPa | - | - | - | - |
| 1777346259 | 9.44° C | 85% | 1017.1 hPa | - | - | - | - |
| 1777346217 | 9.44° C | 85% | 1017.1 hPa | - | - | - | - |
| 1777345317 | 9.44° C | 85% | 1017.2 hPa | - | - | - | - |
* Rain since midnight (hover to see other rain measurements)
** Current wind speed in m/s (hover to see current wind gust speed)